Showing default

LEMUR 2 ROUNDTRIPPER, 62711

Orbit data source: Space-Track

LEMUR 2 ROUNDTRIPPER, 62711 is a payload satellite owned by Spire (US) in SSO that was launched on Tue, 14 Jan 2025 UTC via an FALCON 9 launch vehicle from the Air Force Western Test Range (AFWTR). Payload-class satellites include a variety of spacecraft equipped with specific instruments for various scientific and technological missions. These include communications satellites like Starlink; space stations such as the ISS; scientific satellites like the Hubble; Earth observation satellites from companies like Planet Labs, Umbra, and HawkEye 360; GPS; miniature CubeSats for education and research; and military/defense satellites.

Loading next visibility...
Identifier
62711, 2025-009DG
Orbit
SSO
Country
Flag of USUS
Related business
Manufacturer
Spire/Glasgow
Mission
Operational Commercial Com/MetRO
Bus & Motor
CUBESAT 3U, Unknown motor
Mass
7.6 kg wet, 7.6 kg dry
Launch date (UTC)
2025-01-14 (1 year ago)
Launch vehicle
FALCON 9
Launch site
Air Force Western Test Range (AFWTR)
Object type
Payload
Rocket body
Debris
Shape & HBR
Box + 2 Pan, 0.2 m
Radar Cross Section
0.063 m², Small (<0.1 m²)

Expand to show TLE details & history
Last TLE update: 1 day ago

TLE from 1 day ago
0 LEMUR 2 ROUNDTRIPPER
1 62711U 25009DG  26034.17875269  .00010316  00000-0  80586-3 0  9994
2 62711  97.7279 117.2614 0003287 254.7773 105.3088 15.01295876 57503
Epoch: 2026-02-03T04:17Z
TLE epoch observation values (Epoch: 2026-02-03T04:17:24.232Z)
Latitude
0.00001°
Longitude
-80.45298°
Altitude
566.558 km
Speed
7.578 km/s
True Right ascension
07h 49m 02s
True Declination
0° 00' 00"
Sunlit
Object was in full shadow at epoch
Visualization orbit readout
Latitude
Unknown
Longitude
Unknown
Altitude
Unknown
Speed
Unknown
Apparent Right ascension
Unknown
Apparent Declination
Unknown
Sunlit
N/A
Visualization observer readout
Local Sidereal Time
11:13:03
Azimuth
Unknown
Elevation
Unknown
Doppler factor
Unknown
Orbital elements
Apogee altitude
562.185 km
Perigee altitude
557.624 km
Semi-major axis
6,938.041 km
Eccentricity
0.00033
Inclination
97.7279°
RAAN
117.2614°
Arg. of periapsis
254.7773°
True anomaly
105.34513°
Mean anomaly
105.3088°
Eccentric anomaly
105.32696°
Mean motion
3.75567 °/min
Orbital period
95.85 mins
BSTAR
0.00080586
Loading maneuver chart data...
Computing Atmospheric mass density...
Loading historical data...
Loading historical data...
Loading historical data...
Loading historical data...
Loading historical data...
Loading historical data...
Loading historical data...

Documentation

Showing up to 5 results
|